User: anonymous   Login
Location: Gu�tanj
(46.5431°N, 14.9692°E)
Time: 14:28:43
(UTC+00:00)
Language:

Cosmos 1943 Rocket - Orbit

View from above orbital plane
View from above orbital plane
View from above satellite
View from above satellite

Ground track
Ground track

The orbit data is extracted from the following two-line orbital elements,

1 19120U 88039B   21129.16863705  .00000056  00000-0  49499-4 0  9992
2 19120  71.0151 200.2676 0021619 173.7023 186.4378 14.19222530708130
Epoch (UTC): 09 May 2021 04:02:50
Eccentricity: 0.0021619
inclination: 71.0151°
perigee height: 812 km
apogee height: 843 km
right ascension of ascending node: 200.2676°
argument of perigee: 173.7023°
revolutions per day: 14.19222530
mean anomaly at epoch: 186.4378°
orbit number at epoch: 70813

The dashed part of the orbit path shows where the satellite is in the earth's shadow,  

DLR